Regional Weather Roundup
Issued by NWS

Home | Current Version | Previous Version | Graphics & Text | Print | Product List | Glossary On
Versions: 1 2 3 4 5 6 7 8 9 10 11 12 13 14 15 16 17 18 19 20 21 22 23 24 25 26 27 28 29 30 31 32 33 34 35 36 37 38 39 40 41 42 43 44 45 46 47 48 49 50
000
ASUS43 KLSX 190107
RWRMO

WEATHER SUMMARY FOR MISSOURI
NATIONAL WEATHER SERVICE SPRINGFIELD MO
700 PM CST WED JAN 18 2017

NOTE: "FAIR" INDICATES FEW OR NO CLOUDS BELOW 12,000 FEET WITH NO
       SIGNIFICANT WEATHER AND/OR OBSTRUCTIONS TO VISIBILITY.
       CURRENT SKY AND/OR WEATHER CONDITIONS ARE NOT AVAILABLE FOR
       CHILLICOTHE AND FARMINGTON.

MOZ001>031-035>038-043-044-053-054-190200-
...NORTHERN AND WESTERN MISSOURI...

CITY           SKY/WX    TMP DP  RH WIND       PRES   REMARKS
KANSAS CTY INT CLEAR     37  32  82 S8        29.99S
KANSAS C DTWN  CLEAR     42  36  79 CALM      30.01R
LEE`S SUMMIT   PTCLDY    42  38  85 SE5       30.01R
ST JOSEPH      CLEAR     38  36  92 SE3       29.98F
CHILLICOTHE      N/A     36  34  92 SE5       30.02F
KIRKSVILLE     FOG       34  34 100 CALM      30.03F VSB 3/4

$$
MOZ066>068-077>081-088>096-101>105-190200-
...SOUTHWEST MISSOURI...

CITY           SKY/WX    TMP DP  RH WIND       PRES   REMARKS
SPRINGFIELD    CLOUDY    45  40  82 SE17      30.02F
JOPLIN         CLOUDY    50  44  80 S7        30.01F
BRANSON        CLOUDY    39  39 100 SE6       30.06S FOG

$$
MOZ032>034-039>042-045>050-055>058-069>072-190200-
...CENTRAL MISSOURI...

CITY           SKY/WX    TMP DP  RH WIND       PRES   REMARKS
COLUMBIA       CLOUDY    45  35  68 E6        30.04F
JEFFERSON CITY CLOUDY    43  36  76 SE7       30.04F
ROLLA          CLOUDY    45  36  70 SE9       30.03F
SEDALIA        CLOUDY    46  38  73 SE6       30.03F
WHITEMAN AFB   CLOUDY    46  42  88 S3        30.01S
WARRENSBURG    CLOUDY    45  37  76 SE3       30.02R
OSAGE BEACH    CLOUDY    49  35  58 S6        30.04F

$$
MOZ051-052-059>065-190200-
...EAST CENTRAL MISSOURI...

CITY           SKY/WX    TMP DP  RH WIND       PRES   REMARKS
ST LOUIS INTL  CLOUDY    45  35  68 SE7       30.09F
SPIRIT OF STL  CLOUDY    44  37  76 SE3       30.09F
ST CHARLES     CLOUDY    41  38  89 SE7       30.09F

$$
MOZ072>076-082>087-097>100-106>115-190200-
...SOUTH CENTRAL AND SOUTHEAST MISSOURI...

CITY           SKY/WX    TMP DP  RH WIND       PRES   REMARKS
CAPE GIRARDEAU MOCLDY    42  39  89 W5        30.15R
FARMINGTON     CLOUDY    42  37  82 S7        30.10R
POPLAR BLUFF   CLOUDY    44  41  89 NE6       30.11F
WEST PLAINS    CLOUDY    42  39  89 E5        30.08F

$$


USA.gov is the U.S. government's official web portal to all federal, state and local government web resources and services.